This is the latest recevied weather packets stored in our database for station/object AI5BL. If no packets are shown the sender has not sent any weather packets the latest 10 day(s).
| Time | Temp. | Humidity | Pressure | Rain* | Wind** | Luminosity | Snow |
|---|---|---|---|---|---|---|---|
| 1788616875 | 25° C | 99% | 1017.2 hPa | 0 mm | - | 172 W/m² | - |
| 1788616570 | 25° C | 99% | 1017.2 hPa | 0 mm | - | 205 W/m² | - |
| 1788616266 | 25° C | 99% | 1017.2 hPa | 0 mm | - | 208 W/m² | - |
| 1788615960 | 24.44° C | 99% | 1017.3 hPa | 0 mm | - | 169 W/m² | - |
| 1788615669 | 24.44° C | 99% | 1017.2 hPa | 0 mm | - | 162 W/m² | - |
| 1788615355 | 24.44° C | 99% | 1017.2 hPa | 0 mm | - | 135 W/m² | - |
| 1788615054 | 24.44° C | 99% | 1017.2 hPa | 0 mm | - | 123 W/m² | - |
| 1788614754 | 23.89° C | 99% | 1017.1 hPa | 0 mm | - | 111 W/m² | - |
| 1788614449 | 24.44° C | 99% | 1017.1 hPa | 0 mm | - | 120 W/m² | - |
| 1788614144 | 23.89° C | 99% | 1017.2 hPa | 0 mm | - | 114 W/m² | - |
| 1788613840 | 23.89° C | 99% | 1017.2 hPa | 0 mm | - | 102 W/m² | - |
| 1788613538 | 23.89° C | 99% | 1017.3 hPa | 0 mm | - | 84 W/m² | - |
| 1788613234 | 23.89° C | 99% | 1017.1 hPa | 0 mm | - | 74 W/m² | - |
| 1788612933 | 23.89° C | 99% | 1017.1 hPa | 0 mm | - | 73 W/m² | - |
| 1788612629 | 23.89° C | 99% | 1016.9 hPa | 0 mm | - | 63 W/m² | - |
| 1788612325 | 23.89° C | 99% | 1016.7 hPa | 0 mm | - | 48 W/m² | - |
| 1788612021 | 23.89° C | 99% | 1016.7 hPa | 0 mm | - | 48 W/m² | - |
| 1788611717 | 23.89° C | 99% | 1016.6 hPa | 0 mm | - | 41 W/m² | - |
| 1788611413 | 23.33° C | 99% | 1016.7 hPa | 0 mm | - | 35 W/m² | - |
| 1788611107 | 23.89° C | 99% | 1016.6 hPa | 0 mm | - | 30 W/m² | - |
| 1788610823 | 23.89° C | 99% | 1016.6 hPa | 0 mm | - | 25 W/m² | - |
| 1788610497 | 23.33° C | 99% | 1016.4 hPa | 0 mm | - | 20 W/m² | - |
| 1788610196 | 23.33° C | 99% | 1016.5 hPa | 0 mm | - | 17 W/m² | - |
| 1788609890 | 23.33° C | 99% | 1016.3 hPa | 0 mm | - | 14 W/m² | - |
| 1788609586 | 23.33° C | 99% | 1016.4 hPa | 0 mm | - | 11 W/m² | - |
* Rain latest hour (hover to see other rain measurements)
** Current wind speed in m/s (hover to see current wind gust speed)